Location: ??????
(41.3164°N, 22.6615°E)
Time: 02:37:13
(UTC+00:00)

CAS-4A - Pass Details

Date: 10 July 2022
Orbit: 521 x 537 km, 43.0° (Epoch: 10 August)

Event Time Altitude Azimuth Distance (km) Brightness Sun altitude
Rises 18:55:08 0° 203° (SSW) 2,634 ? -8.7°
Reaches altitude 10° 18:58:01 10° 181° (S) 1,747 ? -9.1°
Maximum altitude 19:00:30 16° 143° (SE) 1,413 ? -9.4°
Enters shadow 19:02:28 12° 111° (ESE) 1,634 ? -9.7°
